Probability
0 0 0 0 0 0 0 0 0 0 0 0 0 0 0 0 0 0 0 0 0 0 0 0 0 0 0 0 0 0 0 0 0 0 0 0 0 0 0 0 0 0 0 0
0 0 0 0 0 0 0 0 0 0 0 0 0 0 0 0 0 0 0 0 0 0 0 0 0 0 0 0 0 0 0 0 0 0 0 0 0 0 0 0 0 0 0 0
0 0 0 0 0 0 0 0 0 0 0 0 0 0 0 0 0 0 0 0 0 0 0 0 0 0 0 0 0 0 0 0 0 0 0 0 0 0 0 0 0 0 0 0
0 0 0 0 0 0 0 0 0 0 0 0 0 0 0 0 0 0 0 0 0 0 0 0 0 0 0 0 0 0 0 0 0 0 0 0 0 0 0 0 0 0 0 0
0 0 0 0 0 0 0 0 0 0 0 0 0 0 0 0 0 0 0 0 0 0 0 0 0 0 0 0 0 0 0 0 0 0 0 0 0 0 0 0 0 0 0 0
0 0 0 0 0 0 0 0 0 0 0 0 0 0 0 0 0 0 0 0 0 0 0 0 0 0 0 0 0 0 0 0 0 0 0 0 0 0 0 0 0 0 0 3
0 0 0 0 0 0 0 0 0 0 0 0 0 0 0 0 0 0 0 0 0 0 0 0 0 0 0 0 0 0 0 0 0 0 0 0 0 0 0 0 0 0 0 3
0 0 0 0 0 0 0 0 0 0 0 0 0 0 0 0 0 0 0 0 0 0 0 0 0 0 0 0 0 0 0 0 0 0 0 0 0 0 0 0 0 0 0 3
0 0 0 0 0 0 0 0 0 0 0 0 0 0 0 0 0 0 0 0 0 0 0 0 0 0 0 0 0 0 0 0 0 0 0 0 0 0 0 0 0 0 0 3
0 0 0 0 0 0 0 0 0 0 0 0 0 0 0 0 0 0 0 0 0 0 0 0 0 0 0 0 0 0 0 0 0 0 0 0 0 0 0 0 0 0 0 0
0 0 0 0 0 0 0 0 0 0 0 0 0 0 0 0 0 0 0 0 0 0 0 0 0 0 0 0 0 0 0 0 0 0 0 0 0 0 0 0 0 0 0 0
0 0 0 0 0 0 0 0 0 0 0 0 0 0 0 0 0 0 0 0 0 0 0 0 0 0 0 0 0 0 0 0 0 0 0 0 0 0 0 0 0 0 0 0
0 0 0 0 0 0 0 0 0 0 0 0 0 0 0 0 0 0 0 0 0 0 0 0 0 0 0 0 0 0 0 0 0 0 0 0 0 0 0 0 0 0 0 0
0 0 0 0 0 0 0 0 0 0 0 0 0 0 0 0 0 0 0 0 0 0 0 0 0 0 0 0 0 0 0 0 0 0 0 0 0 0 0 0 0 0 0 0
0 0 0 0 0 0 0 0 0 0 0 0 0 0 0 0 0 0 0 0 0 0 0 0 0 0 0 0 0 0 0 0 0 0 0 0 0 0 0 0 0 0 0 0
0 0 0 0 0 0 0 0 0 0 0 0 0 0 0 0 0 0 0 0 0 0 0 0 0 0 0 0 0 0 0 0 0 0 0 0 0 0 0 0 0 0 0 0
0 0 0 0 0 0 0 0 0 0 0 0 0 0 0 0 0 0 0 0 0 0 0 0 0 0 0 0 0 0 0 0 0 0 0 0 0 0 0 0 0 0 0 0
0 0 0 0 0 0 0 0 0 0 0 0 0 0 0 0 0 0 0 0 0 0 0 0 0 0 0 0 0 0 0 0 0 0 0 0 0 0 0 0 0 0 0 0
0 0 0 0 0 0 0 0 0 0 0 0 0 0 0 0 0 0 0 0 0 0 0 0 0 0 0 0 0 0 0 0 0 0 0 0 0 0 0 0 0 0 0 0
0 0 0 0 0 0 0 0 0 0 0 0 0 0 0 0 0 0 0 0 0 0 0 0 0 0 0 0 0 0 0 0 0 0 0 0 0 0 0 0 0 0 0 0
0 0 0 0 0 0 0 0 0 0 0 0 0 0 0 0 0 0 0 0 0 0 0 0 0 0 0 0 0 0 0 0 0 0 0 0 0 0 0 0 0 0 0 0
0 0 0 0 0 0 0 0 0 0 0 0 0 0 0 0 0 0 0 0 0 0 0 0 0 0 0 0 0 0 0 0 0 0 0 0 0 0 0 0 0 0 0 0
0 0 0 0 0 0 0 0 0 0 0 0 0 0 0 0 0 0 0 0 0 0 0 0 0 0 0 0 0 0 0 0 0 0 0 0 0 0 0 0 0 0 0 0
0 0 0 0 0 0 0 0 0 0 0 0 0 0 0 0 0 0 0 0 0 0 0 0 0 0 0 0 0 0 0 0 0 0 0 0 0 0 0 0 0 0 0 0
0 0 0 0 0 0 0 0 0 0 0 0 0 0 0 0 0 0 0 0 0 0 0 0 0 0 0 0 0 0 0 0 0 0 0 0 0 0 0 0 0 0 0 0
0 0 0 0 0 0 0 0 0 0 0 0 0 0 0 0 0 0 0 0 0 0 0 0 0 0 0 0 0 0 0 0 0 0 0 0 0 0 0 0 0 0 0 0
Height
5893 5895 5895 5895 5894 5893 5891 5889 5886 5884 5881 5878 5875 5871 5868 5864 5861 5857 5854 5850 5847 5843 5839 5835 5831 5827 5823 5819 5816 5812 5809 5806 5803 5801 5799 5797 5796 5796 5797 5798 5799 5801 5803 5806
5891 5892 5892 5891 5891 5889 5887 5885 5882 5880 5877 5874 5871 5868 5864 5861 5858 5855 5851 5848 5844 5840 5836 5832 5827 5823 5819 5815 5811 5807 5803 5800 5796 5794 5791 5789 5788 5787 5787 5788 5789 5790 5793 5795
5888 5890 5889 5889 5888 5886 5884 5882 5879 5876 5873 5870 5868 5865 5862 5859 5856 5853 5849 5845 5841 5837 5833 5829 5824 5820 5815 5811 5806 5802 5798 5794 5791 5788 5785 5782 5780 5779 5779 5779 5780 5781 5783 5785
5886 5887 5887 5886 5885 5883 5882 5879 5877 5873 5871 5868 5866 5863 5860 5857 5854 5851 5848 5844 5840 5836 5831 5827 5822 5818 5813 5808 5803 5799 5794 5790 5787 5783 5780 5777 5775 5773 5772 5771 5772 5773 5774 5776
5884 5884 5884 5884 5883 5881 5879 5877 5874 5871 5868 5866 5863 5861 5860 5856 5853 5850 5846 5842 5838 5834 5830 5825 5821 5816 5811 5806 5801 5796 5792 5788 5784 5780 5776 5773 5770 5767 5766 5765 5765 5765 5766 5768
5882 5882 5882 5882 5881 5879 5877 5875 5872 5870 5867 5865 5862 5860 5858 5855 5852 5849 5845 5841 5837 5833 5829 5825 5820 5815 5810 5805 5800 5795 5791 5786 5782 5777 5773 5769 5766 5763 5761 5759 5759 5759 5760 5761
5880 5881 5881 5880 5879 5878 5876 5874 5872 5869 5866 5864 5862 5859 5858 5854 5851 5848 5845 5841 5837 5834 5829 5825 5820 5815 5810 5804 5799 5795 5790 5785 5781 5776 5772 5767 5764 5760 5757 5755 5755 5754 5754 5755
5879 5880 5879 5879 5878 5877 5875 5873 5872 5869 5866 5864 5862 5859 5858 5855 5851 5848 5845 5842 5838 5834 5830 5825 5820 5815 5810 5805 5800 5795 5790 5785 5780 5776 5771 5766 5762 5758 5755 5753 5751 5750 5750 5750
5878 5878 5878 5877 5877 5876 5874 5872 5871 5869 5867 5864 5862 5860 5858 5855 5852 5849 5846 5843 5839 5835 5831 5826 5821 5816 5811 5806 5800 5795 5790 5785 5781 5776 5771 5766 5761 5757 5753 5750 5749 5747 5747 5746
5877 5877 5877 5877 5876 5875 5874 5872 5871 5869 5867 5865 5863 5861 5859 5856 5853 5850 5847 5844 5840 5836 5831 5827 5822 5817 5812 5807 5802 5796 5791 5786 5781 5776 5771 5767 5762 5757 5753 5749 5747 5745 5744 5743
5876 5877 5877 5877 5876 5875 5874 5873 5871 5869 5868 5866 5864 5864 5860 5857 5854 5852 5848 5845 5841 5837 5832 5828 5823 5818 5813 5808 5803 5798 5793 5788 5783 5777 5772 5767 5762 5758 5753 5749 5746 5744 5742 5741
5876 5877 5876 5876 5876 5874 5874 5873 5872 5871 5869 5866 5865 5866 5861 5858 5855 5853 5849 5846 5842 5838 5833 5829 5824 5820 5815 5810 5805 5800 5794 5789 5784 5779 5774 5768 5763 5758 5754 5750 5746 5743 5741 5739
5876 5877 5877 5876 5878 5876 5874 5873 5872 5871 5869 5867 5866 5867 5862 5859 5856 5854 5851 5847 5843 5839 5835 5830 5826 5821 5816 5812 5806 5801 5796 5791 5786 5780 5775 5770 5765 5760 5755 5750 5747 5743 5740 5738
5876 5876 5877 5877 5876 5875 5875 5874 5873 5871 5870 5869 5867 5865 5863 5860 5858 5855 5852 5848 5845 5841 5836 5832 5827 5823 5818 5813 5808 5803 5798 5793 5788 5782 5777 5772 5766 5761 5756 5751 5747 5744 5740 5738
5876 5877 5877 5877 5876 5876 5875 5874 5873 5872 5871 5870 5868 5866 5864 5861 5859 5856 5853 5850 5846 5842 5838 5834 5829 5825 5820 5815 5811 5805 5800 5795 5790 5785 5779 5774 5768 5763 5758 5753 5749 5745 5741 5739
5876 5877 5877 5877 5876 5876 5875 5875 5874 5873 5871 5870 5868 5867 5865 5862 5859 5857 5854 5851 5847 5843 5839 5835 5831 5827 5822 5818 5813 5808 5803 5797 5792 5787 5782 5776 5771 5765 5760 5756 5751 5747 5743 5740
5876 5877 5877 5877 5877 5876 5876 5875 5874 5873 5872 5870 5869 5868 5865 5863 5860 5857 5854 5851 5848 5844 5840 5836 5832 5828 5824 5820 5815 5810 5805 5800 5795 5790 5784 5779 5774 5768 5763 5759 5754 5750 5746 5742
5876 5877 5877 5877 5877 5877 5878 5875 5874 5873 5872 5870 5869 5867 5865 5863 5860 5857 5855 5852 5848 5845 5841 5837 5834 5830 5826 5821 5817 5812 5808 5803 5797 5792 5787 5782 5777 5772 5767 5762 5757 5753 5749 5745
5875 5876 5876 5876 5876 5876 5876 5875 5873 5872 5871 5870 5868 5866 5864 5862 5860 5857 5855 5852 5849 5845 5842 5838 5835 5831 5827 5823 5819 5814 5810 5805 5800 5795 5790 5785 5780 5775 5770 5765 5760 5756 5752 5747
5874 5875 5875 5875 5875 5875 5876 5874 5872 5872 5870 5869 5867 5865 5864 5862 5860 5858 5855 5852 5849 5845 5842 5839 5835 5832 5828 5824 5820 5816 5812 5807 5802 5797 5792 5788 5783 5778 5773 5768 5764 5759 5754 5750
5872 5873 5873 5873 5873 5873 5873 5872 5871 5871 5870 5867 5866 5864 5862 5860 5859 5857 5854 5851 5848 5845 5842 5839 5835 5832 5828 5825 5821 5817 5813 5809 5804 5800 5795 5790 5786 5781 5776 5772 5767 5762 5758 5753
5869 5870 5870 5870 5870 5872 5870 5869 5869 5868 5866 5865 5863 5862 5860 5858 5856 5854 5852 5849 5847 5844 5841 5838 5835 5832 5828 5825 5821 5818 5814 5810 5806 5802 5797 5793 5788 5784 5779 5775 5770 5765 5761 5757
5866 5867 5867 5868 5869 5867 5866 5866 5865 5864 5863 5861 5860 5859 5857 5855 5853 5852 5850 5847 5845 5842 5840 5837 5834 5831 5828 5825 5821 5818 5814 5811 5807 5803 5799 5795 5791 5786 5782 5778 5774 5769 5765 5761
5862 5863 5863 5863 5863 5863 5862 5862 5861 5860 5859 5858 5856 5855 5853 5852 5850 5848 5846 5844 5842 5840 5837 5835 5832 5829 5826 5823 5820 5817 5814 5810 5807 5803 5800 5796 5792 5788 5785 5781 5777 5772 5768 5764
5857 5858 5858 5858 5858 5858 5857 5857 5856 5855 5854 5853 5852 5850 5849 5847 5846 5844 5842 5840 5838 5836 5834 5832 5829 5827 5824 5821 5818 5816 5813 5809 5806 5803 5800 5797 5793 5789 5786 5783 5779 5775 5772 5768
5851 5852 5853 5853 5853 5852 5852 5851 5850 5850 5849 5847 5846 5845 5843 5842 5841 5839 5837 5835 5833 5831 5829 5827 5825 5823 5821 5818 5816 5813 5810 5808 5805 5802 5799 5796 5793 5790 5787 5784 5780 5777 5774 5771
Wind_Speed
18 17 17 17 18 19 20 22 23 24 24 24 23 22 22 21 22 22 23 24 24 24 24 24 23 23 23 24 24 25 25 26 26 27 28 29 30 31 32 34 35 36 38 39
17 16 16 16 18 19 20 22 23 23 23 23 21 20 20 20 20 21 21 22 22 22 22 22 22 22 23 23 23 23 24 24 24 24 24 25 27 28 29 30 32 34 36 38
16 15 15 16 17 18 19 20 21 21 21 20 19 17 17 17 18 19 19 20 20 20 20 20 21 22 22 22 22 22 22 22 21 21 21 22 23 24 25 27 29 31 33 35
14 13 14 15 15 16 17 18 19 19 18 17 16 14 14 15 16 17 17 17 18 18 19 19 21 22 22 22 22 21 20 20 20 19 19 20 20 20 21 23 25 26 28 31
13 12 12 13 13 14 15 16 17 17 15 14 14 13 13 14 14 15 15 16 17 18 19 20 21 21 22 22 21 21 20 20 19 19 18 18 18 18 19 19 21 23 25 27
11 10 10 10 11 12 13 14 14 14 13 12 13 13 12 13 14 14 15 16 17 18 19 20 21 21 22 22 22 21 20 20 19 18 18 17 16 16 16 16 17 19 21 23
9 8 7 8 8 10 11 12 12 11 11 11 12 12 12 13 14 15 15 16 17 18 19 21 22 22 23 22 22 21 21 20 20 19 18 17 17 15 14 14 14 15 17 19
7 6 6 6 7 8 9 9 9 10 10 10 11 12 13 14 14 15 15 16 17 18 20 22 22 23 23 23 23 22 21 20 20 20 19 18 17 16 14 12 12 13 14 16
6 5 4 4 5 6 6 7 8 8 9 10 10 11 12 14 14 15 15 16 17 19 21 22 22 23 23 24 24 23 22 21 20 21 21 20 19 17 14 12 11 10 11 13
5 4 3 3 3 4 4 6 7 8 8 10 10 11 13 13 14 15 15 16 18 19 20 21 22 23 23 24 24 23 23 22 21 21 21 20 19 18 16 14 11 9 9 10
4 3 2 1 2 3 3 5 6 7 8 9 10 11 12 13 14 15 16 17 18 19 20 21 21 22 23 24 24 24 23 23 22 22 22 21 20 19 17 15 12 10 9 8
4 3 1 1 2 3 4 4 5 6 8 9 10 11 12 12 14 15 16 17 18 19 20 21 21 22 23 24 24 24 23 23 23 23 23 22 21 20 18 16 14 11 10 8
4 3 2 1 2 3 4 4 5 6 7 8 9 10 11 12 13 14 16 17 18 19 20 21 22 22 23 24 24 24 24 24 24 24 24 24 23 22 20 18 15 13 11 9
4 3 2 2 2 3 4 4 5 6 6 8 9 10 10 11 12 14 15 17 18 19 20 21 21 22 23 23 24 24 25 24 24 25 24 24 24 23 21 19 17 15 13 10
4 3 2 2 2 3 3 4 5 5 6 7 8 9 10 11 12 13 15 16 17 19 20 20 21 22 23 23 24 24 25 25 25 25 25 25 25 24 22 21 19 17 14 12
4 3 2 1 1 2 3 4 4 5 6 6 7 8 9 10 12 13 14 15 16 18 19 20 20 21 22 23 23 24 25 25 25 25 26 26 26 25 23 22 20 18 16 14
3 2 1 0 0 1 2 3 4 5 6 7 7 9 10 10 12 13 14 15 16 17 18 19 19 20 21 22 23 24 24 25 25 25 25 26 26 26 24 23 21 20 18 17
3 2 1 1 1 1 2 3 4 5 6 7 8 9 10 11 12 13 14 15 15 16 17 18 18 19 20 21 22 23 24 24 25 24 25 25 25 25 25 24 22 21 19 18
4 4 3 3 3 3 3 4 5 6 7 8 9 9 10 11 12 13 14 14 15 16 16 17 17 18 19 20 21 22 23 24 24 24 24 24 25 25 24 24 23 22 21 19
6 6 6 6 5 5 6 6 6 7 8 9 10 10 11 11 12 13 14 14 15 15 16 16 17 17 18 19 20 21 22 22 23 23 24 24 24 24 24 23 23 22 21 20
9 9 9 9 9 9 8 9 9 9 10 10 11 11 12 12 12 13 14 14 15 15 16 16 17 17 18 18 18 19 20 21 22 22 23 23 23 23 23 23 22 22 21 20
11 11 11 11 11 11 11 11 11 12 12 12 13 13 13 13 13 14 14 14 15 15 16 16 16 17 17 18 18 18 19 20 20 21 21 22 22 22 22 22 22 22 21 20
14 14 13 13 13 14 14 14 14 14 15 15 15 15 15 15 15 15 15 15 16 16 16 16 17 17 17 18 18 18 19 19 19 20 20 20 20 21 21 21 21 21 21 20
17 17 17 16 16 16 16 16 17 17 17 18 18 18 18 18 18 18 18 18 18 18 18 18 18 18 18 18 18 18 18 19 19 19 19 19 19 19 19 19 20 20 20 19
20 19 19 19 19 19 19 19 19 20 20 20 20 20 20 21 21 21 21 20 20 20 20 20 19 19 19 19 19 19 19 19 19 18 18 18 18 18 17 17 17 18 18 18
22 22 22 22 21 22 22 22 22 23 23 23 23 23 23 23 23 23 23 23 23 23 22 22 22 21 21 21 20 20 20 19 19 19 18 18 17 17 17 16 15 15 15 15
Wind_Direction
250 259 268 277 285 291 297 302 305 309 313 316 318 318 317 316 316 316 318 320 321 320 319 318 317 316 313 310 307 304 302 300 296 291 285 279 274 270 265 260 256 253 251 249
248 258 269 280 288 295 300 305 309 313 317 319 320 321 319 318 319 321 323 324 324 324 323 325 325 325 323 320 316 313 310 307 303 297 291 285 279 273 268 263 258 255 252 249
247 259 272 282 290 297 303 309 313 318 321 323 324 325 322 322 324 326 328 329 329 331 332 333 334 335 334 331 328 324 320 316 311 306 300 293 286 278 272 265 260 256 252 249
245 260 272 283 293 301 307 313 317 322 324 327 328 331 329 329 331 333 334 335 339 342 344 343 343 341 340 339 338 335 332 327 322 315 309 304 296 287 279 270 264 259 254 250
245 260 274 286 297 306 313 319 323 327 329 332 335 338 340 338 340 342 343 346 349 352 352 351 350 349 348 348 347 346 343 338 333 325 318 312 304 294 286 276 269 262 255 250
243 260 275 289 302 313 320 326 330 334 338 342 346 350 354 353 353 353 355 357 358 360 359 358 357 356 356 354 353 351 350 347 343 338 333 327 319 307 297 286 276 268 259 252
241 258 276 294 309 321 327 332 338 346 352 356 358 1 3 2 2 3 5 5 6 5 5 4 2 1 0 358 357 355 354 353 351 348 345 340 333 324 312 298 286 276 265 256
233 253 277 299 313 325 333 342 351 358 4 7 9 10 8 9 11 13 14 13 11 10 9 8 8 7 5 5 3 1 0 359 358 357 354 349 344 337 327 313 299 285 274 260
228 249 275 299 316 329 342 356 3 8 14 17 19 17 15 16 20 21 19 16 13 10 9 9 9 9 9 8 7 6 5 4 3 3 2 360 356 351 342 330 316 300 285 268
222 236 264 296 323 350 4 11 13 17 23 26 25 23 23 24 23 20 17 12 9 7 8 9 11 12 11 11 10 10 9 8 6 5 4 3 2 0 355 348 338 324 308 288
201 212 226 304 6 22 21 21 25 30 30 29 28 27 24 23 21 18 14 11 9 9 9 11 12 12 12 12 12 12 11 11 10 9 9 7 6 5 3 360 353 341 328 311
185 186 169 96 47 37 35 31 32 32 30 29 28 28 23 21 18 16 13 11 11 11 12 12 12 12 13 13 13 14 14 12 11 10 9 9 8 8 6 3 1 355 344 327
169 164 150 112 58 40 33 31 34 33 30 28 26 25 23 20 17 16 15 13 12 13 14 14 13 14 14 15 15 15 16 15 14 14 13 13 12 12 9 8 6 2 355 346
157 148 132 100 62 42 30 26 28 27 26 25 24 22 20 18 16 15 15 14 14 14 15 15 15 16 17 17 17 17 17 17 17 17 16 15 15 15 14 13 10 9 6 1
151 147 134 100 62 47 34 22 18 18 19 20 18 17 15 14 13 13 13 13 13 14 15 15 15 16 17 18 18 17 17 18 17 17 18 17 18 18 19 18 16 16 15 10
155 154 148 115 63 44 34 24 20 13 10 9 9 10 9 9 9 9 9 9 9 11 12 13 14 15 16 16 17 18 18 19 19 19 19 20 21 21 22 22 22 21 19 18
178 183 185 181 49 35 28 15 10 6 3 0 0 2 2 2 2 2 3 4 5 6 8 9 10 12 14 15 16 17 18 19 19 19 20 21 22 23 23 24 24 24 23 23
197 211 224 249 291 336 347 346 348 349 350 351 352 354 355 357 357 358 358 360 1 3 5 7 9 11 12 14 15 15 16 17 18 19 20 21 22 23 24 24 25 25 25 24
224 238 254 270 288 300 312 320 325 329 335 340 341 344 346 348 351 353 354 355 357 360 2 4 5 7 9 10 12 13 14 15 17 18 19 20 21 23 24 25 25 25 25 25
241 250 260 271 280 287 294 300 307 313 318 326 329 332 335 338 341 343 346 348 349 353 356 358 360 2 4 5 7 9 11 13 15 16 18 19 20 22 23 24 24 24 24 25
247 255 261 268 274 279 284 288 293 298 306 311 316 320 323 327 331 335 338 340 343 346 348 350 352 355 357 359 1 4 6 9 11 13 15 17 19 20 22 23 23 24 25 25
252 258 263 268 272 275 280 283 286 291 295 299 304 309 313 317 320 323 327 330 334 337 341 343 344 347 350 352 355 358 0 3 5 8 10 12 15 17 19 21 22 23 24 26
254 259 263 267 271 274 277 280 283 285 289 293 297 301 305 308 311 313 316 319 323 327 330 333 336 338 340 343 346 350 353 355 358 1 4 6 9 12 15 18 20 22 24 25
258 261 264 268 270 273 275 277 279 282 285 288 292 295 298 301 303 305 307 310 313 316 319 322 325 328 331 333 336 339 342 346 350 353 356 359 2 5 9 13 16 19 22 24
260 263 265 268 270 272 274 276 279 281 282 285 287 290 293 295 297 299 301 303 305 307 310 313 315 318 321 324 326 328 332 335 338 342 346 349 352 355 359 3 9 13 17 21
262 263 265 267 269 270 273 275 277 279 281 282 284 286 289 291 294 296 297 299 300 301 303 305 307 309 311 314 317 320 323 326 328 331 334 337 340 344 347 350 355 1 6 12